Hourly Data Report for March 17, 2021

TORONTO CITY
ONTARIO
Current Station Operator: ECCC - MSC

43°40'00.000" N
79°24'00.000" W
112.50 m
6158355
71508
XTO

Download Data

Hourly Data (March 2021)
Hourly Data Report for March 17, 2021
TIME
LST
Temp Definition
°C
Dew Point Definition
°C
Rel Hum Definition
%
Precip. Amount Definition
mm

Wind Dir Definition
10's deg

Wind Spd Definition
km/h
Visibility Definition
km
Stn Press Definition
kPa
Hmdx Definition


Wind Chill Definition


Weather Definition


00:00 2.3 -3.4 66 0.0       100.44     LegendNANA
01:00 2.3 -4.2 62 0.0       100.42     LegendNANA
02:00 2.2 -5.0 59 0.0       100.41     LegendNANA
03:00 2.1 -5.0 59 0.0       100.44     LegendNANA
04:00 2.2 -4.3 62 0.0       100.46     LegendNANA
05:00 2.3 -3.3 67 0.0       100.53     LegendNANA
06:00 2.3 -2.7 69 0.0       100.60     LegendNANA
07:00 2.5 -2.5 70 0.0       100.56     LegendNANA
08:00 3.1 -2.1 69 0.0       100.59     LegendNANA
09:00 3.6 -2.3 65 0.0       100.55     LegendNANA
10:00 4.7 -1.3 65 0.0       100.51     LegendNANA
11:00 6.3 -1.6 57 0.0       100.47     LegendNANA
12:00 7.2 -1.5 54 0.0       100.42     LegendNANA
13:00 7.3 -1.4 54 0.0       100.37     LegendNANA
14:00 7.5 -1.5 53 0.0       100.33     LegendNANA
15:00 7.2 -1.6 54 0.0       100.30     LegendNANA
16:00 7.7 -1.4 53 0.0       100.25     LegendNANA
17:00 8.5 -0.1 55 0.0       100.15     LegendNANA
18:00 7.4 0.0 59 0.0       100.24     LegendNANA
19:00 6.2 -0.4 62 0.0       100.33     LegendNANA
20:00 6.6 -0.3 61 0.0       100.28     LegendNANA
21:00 6.7 -0.2 61 0.0       100.23     LegendNANA
22:00 5.8 -0.5 64 0.0       100.19     LegendNANA
23:00 4.4 -0.6 70 0.0       100.14     LegendNANA

Notes on Data Quality.

Legend

  • E = Estimated
  • M = Missing
  • NA = Not Available*
  • [empty] = Indicates an unobserved value
Date modified: